Year,Month,Day,Hour,Minute,Value (Times are PST for temperature in C)
2019,08,07,00,00,18.10
2019,08,07,00,01,18.10
2019,08,07,00,02,18.10
2019,08,07,00,03,18.00
2019,08,07,00,04,18.00
2019,08,07,00,05,18.00
2019,08,07,00,06,17.90
2019,08,07,00,07,17.90
2019,08,07,00,08,17.90
2019,08,07,00,09,17.80
2019,08,07,00,10,17.80
2019,08,07,00,11,17.80
2019,08,07,00,12,17.70
2019,08,07,00,13,17.70
2019,08,07,00,14,17.70
2019,08,07,00,15,17.70
2019,08,07,00,16,17.70
2019,08,07,00,17,17.60
2019,08,07,00,18,17.60
2019,08,07,00,19,17.50
2019,08,07,00,20,17.50
2019,08,07,00,21,17.40
2019,08,07,00,22,17.40
2019,08,07,00,23,17.30
2019,08,07,00,24,17.30
2019,08,07,00,25,17.20
2019,08,07,00,26,17.20
2019,08,07,00,27,17.20
2019,08,07,00,28,17.10
2019,08,07,00,29,17.10
2019,08,07,00,30,17.10
2019,08,07,00,31,17.10
2019,08,07,00,32,17.10
2019,08,07,00,33,17.10
2019,08,07,00,34,17.10
2019,08,07,00,35,17.00
2019,08,07,00,36,17.00
2019,08,07,00,37,17.00
2019,08,07,00,38,16.90
2019,08,07,00,39,16.90
2019,08,07,00,40,16.90
2019,08,07,00,41,16.90
2019,08,07,00,42,16.90
2019,08,07,00,43,16.90
2019,08,07,00,44,16.80
2019,08,07,00,45,16.80
2019,08,07,00,46,16.80
2019,08,07,00,47,16.80
2019,08,07,00,48,16.80
2019,08,07,00,49,16.80
2019,08,07,00,50,16.80
2019,08,07,00,51,16.70
2019,08,07,00,52,16.70
2019,08,07,00,53,16.70
2019,08,07,00,54,16.70
2019,08,07,00,55,16.70
2019,08,07,00,56,16.70
2019,08,07,00,57,16.70
2019,08,07,00,58,16.70
2019,08,07,00,59,16.70
2019,08,07,01,00,16.70
2019,08,07,01,01,16.70
2019,08,07,01,02,16.80
2019,08,07,01,03,16.90
2019,08,07,01,04,16.90
2019,08,07,01,05,17.00
2019,08,07,01,06,17.10
2019,08,07,01,07,17.10
2019,08,07,01,08,17.20
2019,08,07,01,09,17.20
2019,08,07,01,10,17.20
2019,08,07,01,11,17.20
2019,08,07,01,12,17.20
2019,08,07,01,13,17.20
2019,08,07,01,14,17.20
2019,08,07,01,15,17.20
2019,08,07,01,16,17.30
2019,08,07,01,17,17.30
2019,08,07,01,18,17.30
2019,08,07,01,19,17.40
2019,08,07,01,20,17.40
2019,08,07,01,21,17.40
2019,08,07,01,22,17.50
2019,08,07,01,23,17.50
2019,08,07,01,24,17.60
2019,08,07,01,25,17.60
2019,08,07,01,26,17.60
2019,08,07,01,27,17.60
2019,08,07,01,28,17.60
2019,08,07,01,29,17.60
2019,08,07,01,30,17.60
2019,08,07,01,31,17.60
2019,08,07,01,32,17.60
2019,08,07,01,33,17.60
2019,08,07,01,34,17.60
2019,08,07,01,35,17.50
2019,08,07,01,36,17.50
2019,08,07,01,37,17.50
2019,08,07,01,38,17.40
2019,08,07,01,39,17.40
2019,08,07,01,40,17.40
2019,08,07,01,41,17.40
2019,08,07,01,42,17.40
2019,08,07,01,43,17.40
2019,08,07,01,44,17.40
2019,08,07,01,45,17.40
2019,08,07,01,46,17.40
2019,08,07,01,47,17.50
2019,08,07,01,48,17.50
2019,08,07,01,49,17.50
2019,08,07,01,50,17.60
2019,08,07,01,51,17.60
2019,08,07,01,52,17.60
2019,08,07,01,53,17.60
2019,08,07,01,54,17.60
2019,08,07,01,55,17.60
2019,08,07,01,56,17.70
2019,08,07,01,57,17.70
2019,08,07,01,58,17.70
2019,08,07,01,59,17.70
2019,08,07,02,00,17.70
2019,08,07,02,01,17.70
2019,08,07,02,02,17.70
2019,08,07,02,03,17.70
2019,08,07,02,04,17.70
2019,08,07,02,05,17.70
2019,08,07,02,06,17.60
2019,08,07,02,07,17.60
2019,08,07,02,08,17.60
2019,08,07,02,09,17.60
2019,08,07,02,10,17.50
2019,08,07,02,11,17.50
2019,08,07,02,12,17.50
2019,08,07,02,13,17.40
2019,08,07,02,14,17.40
2019,08,07,02,15,17.40
2019,08,07,02,16,17.40
2019,08,07,02,17,17.40
2019,08,07,02,18,17.40
2019,08,07,02,19,17.50
2019,08,07,02,20,17.50
2019,08,07,02,21,17.60
2019,08,07,02,22,17.60
2019,08,07,02,23,17.60
2019,08,07,02,24,17.60
2019,08,07,02,25,17.60
2019,08,07,02,26,17.60
2019,08,07,02,27,17.60
2019,08,07,02,28,17.60
2019,08,07,02,29,17.60
2019,08,07,02,30,17.60
2019,08,07,02,31,17.60
2019,08,07,02,32,17.60
2019,08,07,02,33,17.70
2019,08,07,02,34,17.70
2019,08,07,02,35,17.70
2019,08,07,02,36,17.70
2019,08,07,02,37,17.70
2019,08,07,02,38,17.70
2019,08,07,02,39,17.70
2019,08,07,02,40,17.70
2019,08,07,02,41,17.60
2019,08,07,02,42,17.60
2019,08,07,02,43,17.60
2019,08,07,02,44,17.50
2019,08,07,02,45,17.50
2019,08,07,02,46,17.40
2019,08,07,02,47,17.40
2019,08,07,02,48,17.40
2019,08,07,02,49,17.30
2019,08,07,02,50,17.30
2019,08,07,02,51,17.20
2019,08,07,02,52,17.20
2019,08,07,02,53,17.20
2019,08,07,02,54,17.20
2019,08,07,02,55,17.10
2019,08,07,02,56,17.10
2019,08,07,02,57,17.10
2019,08,07,02,58,17.00
2019,08,07,02,59,17.00
2019,08,07,03,00,17.00
2019,08,07,03,01,17.00
2019,08,07,03,02,16.90
2019,08,07,03,03,16.80
2019,08,07,03,04,16.70
2019,08,07,03,05,16.60
2019,08,07,03,06,16.60
2019,08,07,03,07,16.50
2019,08,07,03,08,16.50
2019,08,07,03,09,16.40
2019,08,07,03,10,16.40
2019,08,07,03,11,16.30
2019,08,07,03,12,16.30
2019,08,07,03,13,16.30
2019,08,07,03,14,16.30
2019,08,07,03,15,16.20
2019,08,07,03,16,16.20
2019,08,07,03,17,16.20
2019,08,07,03,18,16.20
2019,08,07,03,19,16.20
2019,08,07,03,20,16.10
2019,08,07,03,21,16.10
2019,08,07,03,22,16.10
2019,08,07,03,23,16.10
2019,08,07,03,24,16.10
2019,08,07,03,25,16.10
2019,08,07,03,26,16.10
2019,08,07,03,27,16.10
2019,08,07,03,28,16.10
2019,08,07,03,29,16.10
2019,08,07,03,30,16.10
2019,08,07,03,31,16.20
2019,08,07,03,32,16.20
2019,08,07,03,33,16.20
2019,08,07,03,34,16.20
2019,08,07,03,35,16.20
2019,08,07,03,36,16.20
2019,08,07,03,37,16.20
2019,08,07,03,38,16.10
2019,08,07,03,39,16.10
2019,08,07,03,40,16.10
2019,08,07,03,41,16.10
2019,08,07,03,42,16.10
2019,08,07,03,43,16.00
2019,08,07,03,44,16.00
2019,08,07,03,45,16.00
2019,08,07,03,46,16.00
2019,08,07,03,47,16.00
2019,08,07,03,48,15.90
2019,08,07,03,49,15.90
2019,08,07,03,50,15.90
2019,08,07,03,51,15.90
2019,08,07,03,52,15.90
2019,08,07,03,53,15.90
2019,08,07,03,54,15.90
2019,08,07,03,55,15.80
2019,08,07,03,56,15.80
2019,08,07,03,57,15.80
2019,08,07,03,58,15.80
2019,08,07,03,59,15.80
2019,08,07,04,00,15.80
2019,08,07,04,01,15.80
2019,08,07,04,02,15.80
2019,08,07,04,03,15.80
2019,08,07,04,04,15.80
2019,08,07,04,05,15.80
2019,08,07,04,06,15.70
2019,08,07,04,07,15.70
2019,08,07,04,08,15.70
2019,08,07,04,09,15.70
2019,08,07,04,10,15.70
2019,08,07,04,11,15.70
2019,08,07,04,12,15.70
2019,08,07,04,13,15.60
2019,08,07,04,14,15.60
2019,08,07,04,15,15.60
2019,08,07,04,16,15.60
2019,08,07,04,17,15.60
2019,08,07,04,18,15.50
2019,08,07,04,19,15.50
2019,08,07,04,20,15.50
2019,08,07,04,21,15.50
2019,08,07,04,22,15.40
2019,08,07,04,23,15.40
2019,08,07,04,24,15.40
2019,08,07,04,25,15.30
2019,08,07,04,26,15.30
2019,08,07,04,27,15.30
2019,08,07,04,28,15.30
2019,08,07,04,29,15.20
2019,08,07,04,30,15.20
2019,08,07,04,31,15.20
2019,08,07,04,32,15.20
2019,08,07,04,33,15.20
2019,08,07,04,34,15.20
2019,08,07,04,35,15.20
2019,08,07,04,36,15.10
2019,08,07,04,37,15.10
2019,08,07,04,38,15.10
2019,08,07,04,39,15.10
2019,08,07,04,40,15.10
2019,08,07,04,41,15.20
2019,08,07,04,42,15.20
2019,08,07,04,43,15.20
2019,08,07,04,44,15.20
2019,08,07,04,45,15.20
2019,08,07,04,46,15.20
2019,08,07,04,47,15.20
2019,08,07,04,48,15.10
2019,08,07,04,49,15.10
2019,08,07,04,50,15.10
2019,08,07,04,51,15.10
2019,08,07,04,52,15.10
2019,08,07,04,53,15.10
2019,08,07,04,54,15.10
2019,08,07,04,55,15.10
2019,08,07,04,56,15.00
2019,08,07,04,57,15.00
2019,08,07,04,58,15.00
2019,08,07,04,59,14.90
2019,08,07,05,00,14.90
2019,08,07,05,01,14.90
2019,08,07,05,02,14.90
2019,08,07,05,03,14.90
2019,08,07,05,04,14.80
2019,08,07,05,05,14.80
2019,08,07,05,06,14.80
2019,08,07,05,07,14.80
2019,08,07,05,08,14.80
2019,08,07,05,09,14.70
2019,08,07,05,10,14.70
2019,08,07,05,11,14.70
2019,08,07,05,12,14.60
2019,08,07,05,13,14.60
2019,08,07,05,14,14.60
2019,08,07,05,15,14.60
2019,08,07,05,16,14.50
2019,08,07,05,17,14.50
2019,08,07,05,18,14.50
2019,08,07,05,19,14.50
2019,08,07,05,20,14.40
2019,08,07,05,21,14.40
2019,08,07,05,22,14.40
2019,08,07,05,23,14.40
2019,08,07,05,24,14.40
2019,08,07,05,25,14.40
2019,08,07,05,26,14.40
2019,08,07,05,27,14.40
2019,08,07,05,28,14.30
2019,08,07,05,29,14.30
2019,08,07,05,30,14.30
2019,08,07,05,31,14.30
2019,08,07,05,32,14.30
2019,08,07,05,33,14.30
2019,08,07,05,34,14.30
2019,08,07,05,35,14.30
2019,08,07,05,36,14.30
2019,08,07,05,37,14.30
2019,08,07,05,38,14.30
2019,08,07,05,39,14.30
2019,08,07,05,40,14.30
2019,08,07,05,41,14.30
2019,08,07,05,42,14.30
2019,08,07,05,43,14.30
2019,08,07,05,44,14.30
2019,08,07,05,45,14.30
2019,08,07,05,46,14.30
2019,08,07,05,47,14.30
2019,08,07,05,48,14.30
2019,08,07,05,49,14.30
2019,08,07,05,50,14.30
2019,08,07,05,51,14.30
2019,08,07,05,52,14.30
2019,08,07,05,53,14.30
2019,08,07,05,54,14.30
2019,08,07,05,55,14.30
2019,08,07,05,56,14.30
2019,08,07,05,57,14.30
2019,08,07,05,58,14.30
2019,08,07,05,59,14.30
2019,08,07,06,00,14.30
2019,08,07,06,01,14.30
2019,08,07,06,02,14.30
2019,08,07,06,03,14.20
2019,08,07,06,04,14.20
2019,08,07,06,05,14.30
2019,08,07,06,06,14.30
2019,08,07,06,07,14.30
2019,08,07,06,08,14.20
2019,08,07,06,09,14.20
2019,08,07,06,10,14.20
2019,08,07,06,11,14.20
2019,08,07,06,12,14.20
2019,08,07,06,13,14.20
2019,08,07,06,14,14.20
2019,08,07,06,15,14.20
2019,08,07,06,16,14.20
2019,08,07,06,17,14.20
2019,08,07,06,18,14.20
2019,08,07,06,19,14.20
2019,08,07,06,20,14.20
2019,08,07,06,21,14.20
2019,08,07,06,22,14.20
2019,08,07,06,23,14.20
2019,08,07,06,24,14.20
2019,08,07,06,25,14.20
2019,08,07,06,26,14.20
2019,08,07,06,27,14.20
2019,08,07,06,28,14.20
2019,08,07,06,29,14.20
2019,08,07,06,30,14.20
2019,08,07,06,31,14.20
2019,08,07,06,32,14.20
2019,08,07,06,33,14.20
2019,08,07,06,34,14.20
2019,08,07,06,35,14.20
2019,08,07,06,36,14.20
2019,08,07,06,37,14.20
2019,08,07,06,38,14.30
2019,08,07,06,39,14.30
2019,08,07,06,40,14.30
2019,08,07,06,41,14.30
2019,08,07,06,42,14.30
2019,08,07,06,43,14.30
2019,08,07,06,44,14.40
2019,08,07,06,45,14.40
2019,08,07,06,46,14.40
2019,08,07,06,47,14.40
2019,08,07,06,48,14.50
2019,08,07,06,49,14.50
2019,08,07,06,50,14.50
2019,08,07,06,51,14.50
2019,08,07,06,52,14.50
2019,08,07,06,53,14.50
2019,08,07,06,54,14.50
2019,08,07,06,55,14.50
2019,08,07,06,56,14.60
2019,08,07,06,57,14.60
2019,08,07,06,58,14.60
2019,08,07,06,59,14.60
2019,08,07,07,00,14.60
2019,08,07,07,01,14.60
2019,08,07,07,02,14.60
2019,08,07,07,03,14.60
2019,08,07,07,04,14.60
2019,08,07,07,05,14.70
2019,08,07,07,06,14.70
2019,08,07,07,07,14.70
2019,08,07,07,08,14.70
2019,08,07,07,09,14.70
2019,08,07,07,10,14.70
2019,08,07,07,11,14.80
2019,08,07,07,12,14.80
2019,08,07,07,13,14.80
2019,08,07,07,14,14.80
2019,08,07,07,15,14.90
2019,08,07,07,16,14.90
2019,08,07,07,17,14.90
2019,08,07,07,18,14.90
2019,08,07,07,19,14.90
2019,08,07,07,20,14.90
2019,08,07,07,21,14.90
2019,08,07,07,22,14.90
2019,08,07,07,23,14.90
2019,08,07,07,24,14.90
2019,08,07,07,25,14.90
2019,08,07,07,26,15.00
2019,08,07,07,27,15.00
2019,08,07,07,28,15.00
2019,08,07,07,29,15.00
2019,08,07,07,30,15.00
2019,08,07,07,31,15.00
2019,08,07,07,32,15.00
2019,08,07,07,33,15.00
2019,08,07,07,34,15.00
2019,08,07,07,35,15.00
2019,08,07,07,36,15.00
2019,08,07,07,37,15.00
2019,08,07,07,38,15.00
2019,08,07,07,39,15.00
2019,08,07,07,40,15.00
2019,08,07,07,41,15.00
2019,08,07,07,42,15.10
2019,08,07,07,43,15.10
2019,08,07,07,44,15.10
2019,08,07,07,45,15.10
2019,08,07,07,46,15.10
2019,08,07,07,47,15.10
2019,08,07,07,48,15.10
2019,08,07,07,49,15.10
2019,08,07,07,50,15.10
2019,08,07,07,51,15.20
2019,08,07,07,52,15.20
2019,08,07,07,53,15.20
2019,08,07,07,54,15.30
2019,08,07,07,55,15.30
2019,08,07,07,56,15.40
2019,08,07,07,57,15.40
2019,08,07,07,58,15.40
2019,08,07,07,59,15.30
2019,08,07,08,00,15.30
2019,08,07,08,01,15.40
2019,08,07,08,02,15.40
2019,08,07,08,03,15.40
2019,08,07,08,04,15.40
2019,08,07,08,05,15.50
2019,08,07,08,06,15.50
2019,08,07,08,07,15.60
2019,08,07,08,08,15.60
2019,08,07,08,09,15.60
2019,08,07,08,10,15.60
2019,08,07,08,11,15.60
2019,08,07,08,12,15.60
2019,08,07,08,13,15.60
2019,08,07,08,14,15.60
2019,08,07,08,15,15.60
2019,08,07,08,16,15.60
2019,08,07,08,17,15.60
2019,08,07,08,18,15.60
2019,08,07,08,19,15.60
2019,08,07,08,20,15.70
2019,08,07,08,21,15.70
2019,08,07,08,22,15.70
2019,08,07,08,23,15.70
2019,08,07,08,24,15.80
2019,08,07,08,25,15.80
2019,08,07,08,26,15.80
2019,08,07,08,27,15.80
2019,08,07,08,28,15.80
2019,08,07,08,29,15.90
2019,08,07,08,30,15.90
2019,08,07,08,31,16.00
2019,08,07,08,32,16.00
2019,08,07,08,33,16.10
2019,08,07,08,34,16.10
2019,08,07,08,35,16.20
2019,08,07,08,36,16.30
2019,08,07,08,37,16.30
2019,08,07,08,38,16.40
2019,08,07,08,39,16.40
2019,08,07,08,40,16.50
2019,08,07,08,41,16.50
2019,08,07,08,42,16.60
2019,08,07,08,43,16.60
2019,08,07,08,44,16.70
2019,08,07,08,45,16.70
2019,08,07,08,46,16.80
2019,08,07,08,47,16.80
2019,08,07,08,48,16.90
2019,08,07,08,49,17.00
2019,08,07,08,50,17.00
2019,08,07,08,51,17.10
2019,08,07,08,52,17.10
2019,08,07,08,53,17.10
2019,08,07,08,54,17.10
2019,08,07,08,55,17.00
2019,08,07,08,56,16.90
2019,08,07,08,57,16.80
2019,08,07,08,58,16.70
2019,08,07,08,59,16.60
2019,08,07,09,00,16.60
2019,08,07,09,01,16.50
2019,08,07,09,02,16.50
2019,08,07,09,03,16.50
2019,08,07,09,04,16.50
2019,08,07,09,05,16.50
2019,08,07,09,06,16.50
2019,08,07,09,07,16.50
2019,08,07,09,08,16.60
2019,08,07,09,09,16.60
2019,08,07,09,10,16.60
2019,08,07,09,11,16.60
2019,08,07,09,12,16.60
2019,08,07,09,13,16.60
2019,08,07,09,14,16.60
2019,08,07,09,15,16.50
2019,08,07,09,16,16.50
2019,08,07,09,17,16.40
2019,08,07,09,18,16.40
2019,08,07,09,19,16.40
2019,08,07,09,20,16.40
2019,08,07,09,21,16.50
2019,08,07,09,22,16.60
2019,08,07,09,23,16.60
2019,08,07,09,24,16.70
2019,08,07,09,25,16.80
2019,08,07,09,26,16.90
2019,08,07,09,27,17.00
2019,08,07,09,28,17.00
2019,08,07,09,29,17.10
2019,08,07,09,30,17.20
2019,08,07,09,31,17.20
2019,08,07,09,32,17.30
2019,08,07,09,33,17.30
2019,08,07,09,34,17.30
2019,08,07,09,35,17.20
2019,08,07,09,36,17.20
2019,08,07,09,37,17.20
2019,08,07,09,38,17.20
2019,08,07,09,39,17.20
2019,08,07,09,40,17.30
2019,08,07,09,41,17.30
2019,08,07,09,42,17.30
2019,08,07,09,43,17.40
2019,08,07,09,44,17.40
2019,08,07,09,45,17.50
2019,08,07,09,46,17.60
2019,08,07,09,47,17.60
2019,08,07,09,48,17.60
2019,08,07,09,49,17.60
2019,08,07,09,50,17.70
2019,08,07,09,51,17.70
2019,08,07,09,52,17.70
2019,08,07,09,53,17.70
2019,08,07,09,54,17.80
2019,08,07,09,55,17.80
2019,08,07,09,56,17.90
2019,08,07,09,57,18.00
2019,08,07,09,58,18.10
2019,08,07,09,59,18.10
2019,08,07,10,00,18.20
2019,08,07,10,01,18.30
2019,08,07,10,02,18.40
2019,08,07,10,03,18.40
2019,08,07,10,04,18.50
2019,08,07,10,05,18.50
2019,08,07,10,06,18.60
2019,08,07,10,07,18.60
2019,08,07,10,08,18.60
2019,08,07,10,09,18.70
2019,08,07,10,10,18.70
2019,08,07,10,11,18.80
2019,08,07,10,12,18.90
2019,08,07,10,13,19.00
2019,08,07,10,14,19.10
2019,08,07,10,15,19.10
2019,08,07,10,16,19.10
2019,08,07,10,17,19.10
2019,08,07,10,18,19.20
2019,08,07,10,19,19.30
2019,08,07,10,20,19.40
2019,08,07,10,21,19.50
2019,08,07,10,22,19.60
2019,08,07,10,23,19.60
2019,08,07,10,24,19.70
2019,08,07,10,25,19.70
2019,08,07,10,26,19.80
2019,08,07,10,27,19.80
2019,08,07,10,28,19.90
2019,08,07,10,29,19.90
2019,08,07,10,30,19.90
2019,08,07,10,31,20.00
2019,08,07,10,32,20.10
2019,08,07,10,33,20.10
2019,08,07,10,34,20.20
2019,08,07,10,35,20.30
2019,08,07,10,36,20.40
2019,08,07,10,37,20.40
2019,08,07,10,38,20.50
2019,08,07,10,39,20.50
2019,08,07,10,40,20.60
2019,08,07,10,41,20.60
2019,08,07,10,42,20.70
2019,08,07,10,43,20.70
2019,08,07,10,44,20.80
2019,08,07,10,45,20.90
2019,08,07,10,46,21.00
2019,08,07,10,47,21.10
2019,08,07,10,48,21.20
2019,08,07,10,49,21.30
2019,08,07,10,50,21.30
2019,08,07,10,51,21.40
2019,08,07,10,52,21.40
2019,08,07,10,53,21.40
2019,08,07,10,54,21.50
2019,08,07,10,55,21.50
2019,08,07,10,56,21.60
2019,08,07,10,57,21.60
2019,08,07,10,58,21.70
2019,08,07,10,59,21.70
2019,08,07,11,00,21.70
2019,08,07,11,01,21.70
2019,08,07,11,02,21.70
2019,08,07,11,03,21.80
2019,08,07,11,04,21.80
2019,08,07,11,05,21.80
2019,08,07,11,06,21.90
2019,08,07,11,07,22.00
2019,08,07,11,08,22.00
2019,08,07,11,09,22.10
2019,08,07,11,10,22.20
2019,08,07,11,11,22.20
2019,08,07,11,12,22.30
2019,08,07,11,13,22.30
2019,08,07,11,14,22.30
2019,08,07,11,15,22.30
2019,08,07,11,16,22.30
2019,08,07,11,17,22.30
2019,08,07,11,18,22.30
2019,08,07,11,19,22.30
2019,08,07,11,20,22.20
2019,08,07,11,21,22.30
2019,08,07,11,22,22.30
2019,08,07,11,23,22.30
2019,08,07,11,24,22.30
2019,08,07,11,25,22.30
2019,08,07,11,26,22.20
2019,08,07,11,27,22.10
2019,08,07,11,28,22.10
2019,08,07,11,29,22.00
2019,08,07,11,30,22.00
2019,08,07,11,31,22.00
2019,08,07,11,32,21.90
2019,08,07,11,33,21.90
2019,08,07,11,34,21.80
2019,08,07,11,35,21.80
2019,08,07,11,36,21.80
2019,08,07,11,37,21.80
2019,08,07,11,38,21.70
2019,08,07,11,39,21.70
2019,08,07,11,40,21.70
2019,08,07,11,41,21.60
2019,08,07,11,42,21.50
2019,08,07,11,43,21.40
2019,08,07,11,44,21.40
2019,08,07,11,45,21.30
2019,08,07,11,46,21.30
2019,08,07,11,47,21.20
2019,08,07,11,48,21.20
2019,08,07,11,49,21.20
2019,08,07,11,50,21.20
2019,08,07,11,51,21.20
2019,08,07,11,52,21.20
2019,08,07,11,53,21.20
2019,08,07,11,54,21.20
2019,08,07,11,55,21.10
2019,08,07,11,56,21.00
2019,08,07,11,57,21.00
2019,08,07,11,58,21.00
2019,08,07,11,59,21.10
2019,08,07,12,00,21.20
2019,08,07,12,01,21.20
2019,08,07,12,02,21.30
2019,08,07,12,03,21.40
2019,08,07,12,04,21.50
2019,08,07,12,05,21.60
2019,08,07,12,06,21.60
2019,08,07,12,07,21.70
2019,08,07,12,08,21.70
2019,08,07,12,09,21.80
2019,08,07,12,10,21.80
2019,08,07,12,11,21.90
2019,08,07,12,12,22.00
2019,08,07,12,13,22.10
2019,08,07,12,14,22.20
2019,08,07,12,15,22.20
2019,08,07,12,16,22.30
2019,08,07,12,17,22.30
2019,08,07,12,18,22.40
2019,08,07,12,19,22.50
2019,08,07,12,20,22.50
2019,08,07,12,21,22.60
2019,08,07,12,22,22.60
2019,08,07,12,23,22.70
2019,08,07,12,24,22.70
2019,08,07,12,25,22.80
2019,08,07,12,26,22.80
2019,08,07,12,27,22.80
2019,08,07,12,28,22.90
2019,08,07,12,29,22.90
2019,08,07,12,30,22.90
2019,08,07,12,31,22.90
2019,08,07,12,32,22.90
2019,08,07,12,33,23.00
2019,08,07,12,34,23.00
2019,08,07,12,35,23.00
2019,08,07,12,36,23.00
2019,08,07,12,37,23.00
2019,08,07,12,38,23.00
2019,08,07,12,39,23.10
2019,08,07,12,40,23.10
2019,08,07,12,41,23.00
2019,08,07,12,42,23.00
2019,08,07,12,43,22.90
2019,08,07,12,44,22.90
2019,08,07,12,45,22.90
2019,08,07,12,46,22.90
2019,08,07,12,47,22.90
2019,08,07,12,48,22.90
2019,08,07,12,49,22.90
2019,08,07,12,50,22.90
2019,08,07,12,51,23.00
2019,08,07,12,52,23.00
2019,08,07,12,53,23.00
2019,08,07,12,54,22.90
2019,08,07,12,55,22.90
2019,08,07,12,56,22.80
2019,08,07,12,57,22.80
2019,08,07,12,58,22.70
2019,08,07,12,59,22.70
2019,08,07,13,00,22.70
2019,08,07,13,01,22.60
2019,08,07,13,02,22.70
2019,08,07,13,03,22.70
2019,08,07,13,04,22.80
2019,08,07,13,05,22.80
2019,08,07,13,06,22.80
2019,08,07,13,07,22.80
2019,08,07,13,08,22.80
2019,08,07,13,09,22.80
2019,08,07,13,10,22.80
2019,08,07,13,11,22.80
2019,08,07,13,12,22.80
2019,08,07,13,13,22.80
2019,08,07,13,14,22.80
2019,08,07,13,15,22.80
2019,08,07,13,16,22.90
2019,08,07,13,17,22.90
2019,08,07,13,18,23.00
2019,08,07,13,19,23.10
2019,08,07,13,20,23.10
2019,08,07,13,21,23.20
2019,08,07,13,22,23.30
2019,08,07,13,23,23.30
2019,08,07,13,24,23.30
2019,08,07,13,25,23.40
2019,08,07,13,26,23.40
2019,08,07,13,27,23.40
2019,08,07,13,28,23.50
2019,08,07,13,29,23.50
2019,08,07,13,30,23.60
2019,08,07,13,31,23.60
2019,08,07,13,32,23.60
2019,08,07,13,33,23.60
2019,08,07,13,34,23.60
2019,08,07,13,35,23.60
2019,08,07,13,36,23.50
2019,08,07,13,37,23.50
2019,08,07,13,38,23.50
2019,08,07,13,39,23.50
2019,08,07,13,40,23.40
2019,08,07,13,41,23.40
2019,08,07,13,42,23.40
2019,08,07,13,43,23.40
2019,08,07,13,44,23.30
2019,08,07,13,45,23.30
2019,08,07,13,46,23.30
2019,08,07,13,47,23.30
2019,08,07,13,48,23.40
2019,08,07,13,49,23.50
2019,08,07,13,50,23.50
2019,08,07,13,51,23.60
2019,08,07,13,52,23.60
2019,08,07,13,53,23.60
2019,08,07,13,54,23.60
2019,08,07,13,55,23.60
2019,08,07,13,56,23.60
2019,08,07,13,57,23.60
2019,08,07,13,58,23.60
2019,08,07,13,59,23.60
2019,08,07,14,00,23.60
2019,08,07,14,01,23.60
2019,08,07,14,02,23.60
2019,08,07,14,03,23.60
2019,08,07,14,04,23.60
2019,08,07,14,05,23.70
2019,08,07,14,06,23.80
2019,08,07,14,07,23.80
2019,08,07,14,08,23.90
2019,08,07,14,09,23.90
2019,08,07,14,10,23.90
2019,08,07,14,11,23.80
2019,08,07,14,12,23.80
2019,08,07,14,13,23.70
2019,08,07,14,14,23.60
2019,08,07,14,15,23.50
2019,08,07,14,16,23.50
2019,08,07,14,17,23.50
2019,08,07,14,18,23.50
2019,08,07,14,19,23.50
2019,08,07,14,20,23.50
2019,08,07,14,21,23.60
2019,08,07,14,22,23.70
2019,08,07,14,23,23.70
2019,08,07,14,24,23.70
2019,08,07,14,25,23.70
2019,08,07,14,26,23.80
2019,08,07,14,27,23.80
2019,08,07,14,28,23.80
2019,08,07,14,29,23.80
2019,08,07,14,30,23.80
2019,08,07,14,31,23.80
2019,08,07,14,32,23.80
2019,08,07,14,33,23.80
2019,08,07,14,34,23.90
2019,08,07,14,35,23.90
2019,08,07,14,36,23.90
2019,08,07,14,37,23.90
2019,08,07,14,38,23.80
2019,08,07,14,39,23.80
2019,08,07,14,40,23.80
2019,08,07,14,41,23.80
2019,08,07,14,42,23.70
2019,08,07,14,43,23.70
2019,08,07,14,44,23.70
2019,08,07,14,45,23.70
2019,08,07,14,46,23.70
2019,08,07,14,47,23.70
2019,08,07,14,48,23.70
2019,08,07,14,49,23.70
2019,08,07,14,50,23.70
2019,08,07,14,51,23.80
2019,08,07,14,52,23.80
2019,08,07,14,53,23.80
2019,08,07,14,54,23.90
2019,08,07,14,55,24.00
2019,08,07,14,56,24.00
2019,08,07,14,57,24.00
2019,08,07,14,58,24.10
2019,08,07,14,59,24.10
2019,08,07,15,00,24.10
2019,08,07,15,01,24.10
2019,08,07,15,02,24.10
2019,08,07,15,03,24.10
2019,08,07,15,04,24.10
2019,08,07,15,05,24.10
2019,08,07,15,06,24.10
2019,08,07,15,07,24.20
2019,08,07,15,08,24.20
2019,08,07,15,09,24.20
2019,08,07,15,10,24.30
2019,08,07,15,11,24.30
2019,08,07,15,12,24.40
2019,08,07,15,13,24.40
2019,08,07,15,14,24.40
2019,08,07,15,15,24.40
2019,08,07,15,16,24.30
2019,08,07,15,17,24.30
2019,08,07,15,18,24.30
2019,08,07,15,19,24.40
2019,08,07,15,20,24.40
2019,08,07,15,21,24.40
2019,08,07,15,22,24.40
2019,08,07,15,23,24.40
2019,08,07,15,24,24.40
2019,08,07,15,25,24.50
2019,08,07,15,26,24.50
2019,08,07,15,27,24.60
2019,08,07,15,28,24.60
2019,08,07,15,29,24.60
2019,08,07,15,30,24.70
2019,08,07,15,31,24.70
2019,08,07,15,32,24.70
2019,08,07,15,33,24.70
2019,08,07,15,34,24.70
2019,08,07,15,35,24.70
2019,08,07,15,36,24.70
2019,08,07,15,37,24.80
2019,08,07,15,38,24.80
2019,08,07,15,39,24.80
2019,08,07,15,40,24.80
2019,08,07,15,41,24.70
2019,08,07,15,42,24.70
2019,08,07,15,43,24.70
2019,08,07,15,44,24.70
2019,08,07,15,45,24.70
2019,08,07,15,46,24.70
2019,08,07,15,47,24.80
2019,08,07,15,48,24.80
2019,08,07,15,49,24.90
2019,08,07,15,50,24.90
2019,08,07,15,51,25.00
2019,08,07,15,52,25.00
2019,08,07,15,53,25.10
2019,08,07,15,54,25.10
2019,08,07,15,55,25.20
2019,08,07,15,56,25.20
2019,08,07,15,57,25.20
2019,08,07,15,58,25.20
2019,08,07,15,59,25.20
2019,08,07,16,00,25.20
2019,08,07,16,01,25.30
2019,08,07,16,02,25.40
2019,08,07,16,03,25.40
2019,08,07,16,04,25.40
2019,08,07,16,05,25.50
2019,08,07,16,06,25.50
2019,08,07,16,07,25.40
2019,08,07,16,08,25.30
2019,08,07,16,09,25.30
2019,08,07,16,10,25.30
2019,08,07,16,11,25.30
2019,08,07,16,12,25.20
2019,08,07,16,13,25.20
2019,08,07,16,14,25.20
2019,08,07,16,15,25.10
2019,08,07,16,16,25.10
2019,08,07,16,17,25.10
2019,08,07,16,18,25.10
2019,08,07,16,19,25.10
2019,08,07,16,20,25.10
2019,08,07,16,21,25.10
2019,08,07,16,22,25.10
2019,08,07,16,23,25.00
2019,08,07,16,24,25.00
2019,08,07,16,25,24.90
2019,08,07,16,26,24.90
2019,08,07,16,27,24.90
2019,08,07,16,28,24.90
2019,08,07,16,29,24.90
2019,08,07,16,30,24.90
2019,08,07,16,31,25.00
2019,08,07,16,32,25.00
2019,08,07,16,33,25.10
2019,08,07,16,34,25.10
2019,08,07,16,35,25.20
2019,08,07,16,36,25.20
2019,08,07,16,37,25.30
2019,08,07,16,38,25.40
2019,08,07,16,39,25.40
2019,08,07,16,40,25.40
2019,08,07,16,41,25.40
2019,08,07,16,42,25.40
2019,08,07,16,43,25.40
2019,08,07,16,44,25.40
2019,08,07,16,45,25.30
2019,08,07,16,46,25.30
2019,08,07,16,47,25.30
2019,08,07,16,48,25.30
2019,08,07,16,49,25.10
2019,08,07,16,50,25.00
2019,08,07,16,51,25.00
2019,08,07,16,52,24.90
2019,08,07,16,53,24.90
2019,08,07,16,54,24.90
2019,08,07,16,55,25.00
2019,08,07,16,56,25.00
2019,08,07,16,57,25.10
2019,08,07,16,58,25.20
2019,08,07,16,59,25.20
2019,08,07,17,00,25.20
2019,08,07,17,01,25.30
2019,08,07,17,02,25.30
2019,08,07,17,03,25.30
2019,08,07,17,04,25.30
2019,08,07,17,05,25.30
2019,08,07,17,06,25.30
2019,08,07,17,07,25.20
2019,08,07,17,08,25.20
2019,08,07,17,09,25.20
2019,08,07,17,10,25.10
2019,08,07,17,11,25.00
2019,08,07,17,12,25.00
2019,08,07,17,13,24.90
2019,08,07,17,14,24.90
2019,08,07,17,15,24.80
2019,08,07,17,16,24.80
2019,08,07,17,17,24.80
2019,08,07,17,18,24.80
2019,08,07,17,19,24.80